マックホルツ第2彗星

141P/Machholz 2 (1994)

English version
Home page
Updated on July 16, 2006

---------------------------------------------------------------------

・ プロフィール

符号 141P/1994 P1
発見日 1994年8月13日
発見光度 10等
発見者 Donald E. Machholz (Colfax, CA)

・ 軌道要素

                    Epoch = 1994 Sept. 5.0 TT
     T = 1994 Sept.18.8041 TT         Peri. = 149.2623
     e = 0.750145                     Node  = 246.1772  2000.0
     q = 0.752548 AU                  Incl. =  12.7865
       a =  3.011944 AU    n = 0.1885532    P =   5.227 years

・ 光度変化

	A核:
        m1 = 13 + 5 logΔ + 35 log r

	D核:
        m1 = 15.5 + 5 logΔ + 45 log r(t - 10)

---------------------------------------------------------------------

軌道要素は Dr. Green の計算によるもので、 IAUC 6108 に掲載されたものです。
光度グラフはComet for Windowsで作成したものです。

---------------------------------------------------------------------

Copyright(C) Seiichi Yoshida (comet@aerith.net). All rights reserved.